TimeCDT,TemperatureF,Dew PointF,Humidity,Sea Level PressureIn,VisibilityMPH,Wind Direction,Wind SpeedMPH,Gust SpeedMPH,PrecipitationIn,Events,Conditions,WindDirDegrees,DateUTC
12:15 AM,55.4,44.6,67,29.85,10.0,NW,6.9,-,N/A,,Overcast,310,2012-10-09 05:15:00
12:35 AM,53.6,46.4,77,29.85,10.0,NW,6.9,-,N/A,,Drizzle,310,2012-10-09 05:35:00
12:55 AM,51.8,48.2,88,29.82,10.0,ESE,3.5,-,N/A,Rain,Light Rain,110,2012-10-09 05:55:00
1:15 AM,51.8,46.4,82,29.80,10.0,ESE,5.8,-,N/A,,Overcast,110,2012-10-09 06:15:00
1:55 AM,51.8,46.4,82,29.81,10.0,NNW,5.8,-,N/A,,Overcast,330,2012-10-09 06:55:00
2:15 AM,51.8,46.4,82,29.82,10.0,Calm,Calm,-,N/A,,Overcast,0,2012-10-09 07:15:00
2:55 AM,50.0,46.4,87,29.82,10.0,Calm,Calm,-,N/A,,Overcast,0,2012-10-09 07:55:00
3:15 AM,48.2,46.4,93,29.80,10.0,SSE,3.5,-,N/A,Rain,Light Rain,150,2012-10-09 08:15:00
3:35 AM,48.2,46.4,93,29.79,10.0,SE,3.5,-,N/A,,Overcast,140,2012-10-09 08:35:00
3:55 AM,48.2,46.4,93,29.78,10.0,Calm,Calm,-,N/A,,Mostly Cloudy,0,2012-10-09 08:55:00
4:15 AM,48.2,46.4,93,29.78,10.0,Calm,Calm,-,N/A,Rain,Rain,0,2012-10-09 09:15:00
4:35 AM,46.4,39.2,76,29.78,10.0,SSE,3.5,-,N/A,,Light Drizzle,150,2012-10-09 09:35:00
4:55 AM,46.4,37.4,71,29.79,10.0,South,4.6,-,N/A,,Scattered Clouds,170,2012-10-09 09:55:00
5:15 AM,46.4,37.4,71,29.79,10.0,South,5.8,-,N/A,Rain,Rain,180,2012-10-09 10:15:00
5:35 AM,46.4,37.4,71,29.79,10.0,South,5.8,-,N/A,Rain,Rain,180,2012-10-09 10:35:00
5:55 AM,46.4,39.2,76,29.80,10.0,South,5.8,-,N/A,Rain,Light Rain,190,2012-10-09 10:55:00
6:15 AM,46.4,39.2,76,29.80,10.0,South,4.6,-,N/A,,Overcast,190,2012-10-09 11:15:00
6:35 AM,46.4,39.2,76,29.80,10.0,South,3.5,-,N/A,,Overcast,170,2012-10-09 11:35:00
6:55 AM,46.4,39.2,76,29.80,10.0,Calm,Calm,-,N/A,,Mostly Cloudy,0,2012-10-09 11:55:00
7:15 AM,46.4,39.2,76,29.80,10.0,Calm,Calm,-,N/A,,Scattered Clouds,0,2012-10-09 12:15:00
7:35 AM,44.6,39.2,81,29.82,10.0,SW,3.5,-,N/A,,Scattered Clouds,220,2012-10-09 12:35:00
7:55 AM,44.6,39.2,81,29.81,10.0,Calm,Calm,-,N/A,,Scattered Clouds,0,2012-10-09 12:55:00
8:15 AM,46.4,41.0,81,29.82,10.0,SSW,3.5,-,N/A,,Overcast,200,2012-10-09 13:15:00
8:35 AM,46.4,42.8,87,29.83,10.0,South,3.5,-,N/A,,Overcast,190,2012-10-09 13:35:00
8:55 AM,46.4,42.8,87,29.83,10.0,Calm,Calm,-,N/A,,Light Drizzle,0,2012-10-09 13:55:00
9:15 AM,48.2,44.6,87,29.84,10.0,SW,4.6,-,N/A,Rain,Light Rain,220,2012-10-09 14:15:00
9:35 AM,48.2,44.6,87,29.85,10.0,WSW,6.9,-,N/A,Rain,Rain,250,2012-10-09 14:35:00
9:55 AM,50.0,46.4,87,29.86,10.0,West,15.0,-,0.01,Rain,Rain,280,2012-10-09 14:55:00
10:15 AM,48.2,46.4,93,29.86,7.0,WNW,15.0,21.9,N/A,Rain,Light Rain,290,2012-10-09 15:15:00
10:35 AM,48.2,46.4,93,29.87,7.0,NNW,19.6,24.2,0.01,Rain,Light Rain,330,2012-10-09 15:35:00
10:55 AM,46.4,42.8,87,29.89,10.0,NW,16.1,21.9,0.02,Rain,Light Rain,320,2012-10-09 15:55:00
11:15 AM,44.6,42.8,93,29.89,10.0,NW,12.7,18.4,0.02,Rain,Light Rain,310,2012-10-09 16:15:00
11:35 AM,44.6,42.8,93,29.90,10.0,WNW,9.2,-,0.04,Rain,Light Rain,300,2012-10-09 16:35:00
11:55 AM,46.4,42.8,87,29.90,10.0,WNW,9.2,-,0.05,Rain,Light Rain,290,2012-10-09 16:55:00
12:15 PM,46.4,42.8,87,29.90,10.0,WNW,9.2,-,0.02,Rain,Light Rain,290,2012-10-09 17:15:00
12:35 PM,46.4,42.8,87,29.90,10.0,WNW,9.2,-,0.03,Rain,Light Rain,290,2012-10-09 17:35:00
12:55 PM,46.4,42.8,87,29.89,10.0,West,9.2,-,0.03,,Scattered Clouds,270,2012-10-09 17:55:00
1:15 PM,46.4,42.8,87,29.88,10.0,West,11.5,-,N/A,,Scattered Clouds,270,2012-10-09 18:15:00
1:35 PM,48.2,42.8,82,29.88,10.0,West,12.7,-,N/A,,Scattered Clouds,280,2012-10-09 18:35:00
1:55 PM,46.4,39.2,76,29.88,10.0,WNW,15.0,-,N/A,,Mostly Cloudy,290,2012-10-09 18:55:00
2:15 PM,48.2,39.2,71,29.89,10.0,WNW,16.1,-,N/A,,Mostly Cloudy,290,2012-10-09 19:15:00
2:35 PM,46.4,37.4,71,29.89,10.0,West,19.6,-,N/A,,Scattered Clouds,280,2012-10-09 19:35:00
2:55 PM,48.2,37.4,66,29.90,10.0,West,17.3,-,N/A,,Clear,280,2012-10-09 19:55:00
3:15 PM,46.4,35.6,66,29.90,10.0,WNW,17.3,23.0,N/A,,Clear,290,2012-10-09 20:15:00
3:35 PM,48.2,35.6,62,29.90,10.0,West,12.7,21.9,N/A,,Clear,280,2012-10-09 20:35:00
3:55 PM,48.2,33.8,58,29.90,10.0,West,15.0,19.6,N/A,,Clear,280,2012-10-09 20:55:00
4:15 PM,48.2,32.0,54,29.91,10.0,West,13.8,-,N/A,,Scattered Clouds,280,2012-10-09 21:15:00
4:35 PM,48.2,32.0,54,29.91,10.0,West,13.8,19.6,N/A,,Mostly Cloudy,270,2012-10-09 21:35:00
4:55 PM,48.2,33.8,58,29.91,10.0,West,12.7,-,N/A,,Overcast,280,2012-10-09 21:55:00
5:15 PM,48.2,33.8,58,29.92,10.0,NW,16.1,26.5,N/A,,Overcast,310,2012-10-09 22:15:00
5:35 PM,46.4,30.2,53,29.93,10.0,NW,16.1,-,N/A,,Scattered Clouds,310,2012-10-09 22:35:00
5:55 PM,46.4,32.0,57,29.94,10.0,WNW,15.0,-,N/A,,Clear,300,2012-10-09 22:55:00
6:15 PM,44.6,32.0,61,29.95,10.0,NW,12.7,-,N/A,,Scattered Clouds,310,2012-10-09 23:15:00
6:35 PM,44.6,32.0,61,29.96,10.0,NW,10.4,-,N/A,,Mostly Cloudy,310,2012-10-09 23:35:00
6:55 PM,42.8,32.0,66,29.96,10.0,WNW,9.2,-,N/A,,Scattered Clouds,300,2012-10-09 23:55:00
7:15 PM,42.8,32.0,66,29.97,10.0,WNW,10.4,-,N/A,,Scattered Clouds,290,2012-10-10 00:15:00
7:35 PM,42.8,32.0,66,29.98,10.0,WNW,9.2,-,N/A,,Mostly Cloudy,290,2012-10-10 00:35:00
7:55 PM,42.8,33.8,70,29.99,10.0,NW,13.8,17.3,N/A,,Overcast,310,2012-10-10 00:55:00
8:15 PM,42.8,33.8,70,30.00,10.0,NW,15.0,20.7,N/A,,Overcast,310,2012-10-10 01:15:00
8:35 PM,41.0,30.2,65,30.01,10.0,NW,17.3,-,N/A,,Mostly Cloudy,320,2012-10-10 01:35:00
8:55 PM,41.0,30.2,65,30.02,10.0,NW,11.5,-,N/A,,Overcast,310,2012-10-10 01:55:00
9:15 PM,39.2,30.2,70,30.03,10.0,NW,11.5,-,N/A,,Overcast,310,2012-10-10 02:15:00
9:35 PM,39.2,30.2,70,30.04,10.0,NW,10.4,-,N/A,,Overcast,310,2012-10-10 02:35:00
9:55 PM,37.4,30.2,75,30.04,10.0,NW,9.2,-,N/A,,Scattered Clouds,310,2012-10-10 02:55:00
10:15 PM,35.6,30.2,81,30.05,10.0,NW,6.9,-,N/A,,Clear,310,2012-10-10 03:15:00
10:35 PM,33.8,28.4,81,30.05,10.0,WNW,5.8,-,N/A,,Clear,300,2012-10-10 03:35:00
10:55 PM,33.8,28.4,81,30.06,10.0,WNW,6.9,-,N/A,,Clear,300,2012-10-10 03:55:00
11:15 PM,32.0,28.4,87,30.06,10.0,WNW,6.9,-,N/A,,Clear,300,2012-10-10 04:15:00
11:35 PM,33.8,28.4,81,30.06,10.0,WNW,9.2,-,N/A,,Clear,290,2012-10-10 04:35:00
11:55 PM,33.8,28.4,81,30.06,10.0,West,6.9,-,N/A,,Clear,280,2012-10-10 04:55:00